Weather History for PAFA - October, 2012

Change the Weather History Date:

Thursday, October 4, 2012

  Actual Average Record
Temperature  
Mean Temperature 48 °F 34 °F  
Max Temperature 60 °F 42 °F 62 °F (1923)
Min Temperature 36 °F 26 °F 7 °F (1972)
Degree Days  
Heating Degree Days 17 31  
Month to date heating degree days 102 119  
Since 1 July heating degree days 1076 1113  
Cooling Degree Days 0 0  
Month to date cooling degree days 0 0  
Year to date cooling degree days 34 61  
Moisture  
Dew Point 34 °F    
Average Humidity 64    
Maximum Humidity 86    
Minimum Humidity 29    
Precipitation  
Precipitation T in 0.03 in 0.41 in (1960)
Month to date precipitation T 0.11  
Year to date precipitation 7.76 8.78  
Snow  
Snow 0.00 in 0.20 in 2.20 in (1971)
Month to date snowfall 0.0 0.8  
Since 1 July snowfall T 2.6  
Since 1 September snowfall T 2.6  
Snow Depth 0.00 in    
Sea Level Pressure  
Sea Level Pressure 29.90 in    
Wind  
Wind Speed 2 mph (NNE)    
Max Wind Speed 5 mph    
Max Gust Speed -    
Visibility 10 miles    
Events Rain    
T = Trace of Precipitation, MM = Missing Value Source: NWS Daily Summary

Daily Weather History Graph

Daily Weather History Graph

Search for Another Location

Airport or City:

Trip Planner

Search our weather history database for the weather conditions in past years. The results will help you decide how hot, cold, wet, or windy it might be!

Date:

Astronomy

Oct. 04, 2012 Rise Set
Actual Time 8:12 AM AKDT 7:06 PM AKDT
Civil Twilight 7:23 AM AKDT 7:54 PM AKDT
Nautical Twilight 6:26 AM AKDT 8:51 PM AKDT
Astronomical Twilight 5:25 AM AKDT 9:52 PM AKDT
Moon 7:49 PM AKDT (10/4) 2:36 PM AKDT (10/4)
Length of Visible Light 12h 31m
Length of Day
10h 54m
Waning Gibbous, 81% of the Moon is Illuminated
Oct 4
Waning Gibbous
Oct 7
Last Quarter
Oct 15
New
Oct 21
First Quarter
Oct 29
Full

Hourly Weather History & Observations

Time (AKDT) Temp. Windchill Dew Point Humidity Pressure Visibility Wind Dir Wind Speed Gust Speed Precip Events Conditions
12:53 AM 39.9 °F - 28.9 °F 65% 29.96 in 10.0 mi Calm Calm - N/A   Mostly Cloudy
1:53 AM 39.0 °F - 30.0 °F 70% 29.95 in 10.0 mi Calm Calm - N/A   Mostly Cloudy
2:53 AM 37.9 °F 35.5 °F 28.9 °F 70% 29.93 in 10.0 mi NE 3.5 mph - N/A   Mostly Cloudy
3:53 AM 37.0 °F 33.3 °F 30.9 °F 79% 29.93 in 10.0 mi North 4.6 mph - N/A   Mostly Cloudy
4:53 AM 39.0 °F 35.7 °F 30.0 °F 70% 29.89 in 10.0 mi NE 4.6 mph - N/A   Mostly Cloudy
5:53 AM 41.0 °F 39.0 °F 30.0 °F 65% 29.89 in 10.0 mi North 3.5 mph - N/A   Mostly Cloudy
6:53 AM 37.9 °F - 28.9 °F 70% 29.88 in 10.0 mi Calm Calm - N/A   Mostly Cloudy
7:53 AM 39.0 °F 35.7 °F 30.9 °F 73% 29.87 in 10.0 mi NE 4.6 mph - N/A   Overcast
8:53 AM 41.0 °F 38.0 °F 30.9 °F 67% 29.87 in 10.0 mi NNE 4.6 mph - N/A   Mostly Cloudy
9:53 AM 43.0 °F 41.3 °F 33.1 °F 68% 29.87 in 10.0 mi NE 3.5 mph - N/A   Mostly Cloudy
10:53 AM 46.9 °F - 35.1 °F 63% 29.88 in 10.0 mi Calm Calm - N/A   Mostly Cloudy
11:53 AM 48.9 °F - 35.1 °F 59% 29.90 in 10.0 mi NNE 3.5 mph - N/A   Overcast
12:53 PM 50.0 °F - 37.0 °F 61% 29.90 in 10.0 mi NE 4.6 mph - 0.00 in Rain Light Rain
1:53 PM 54.0 °F - 37.0 °F 53% 29.90 in 10.0 mi Calm Calm - 0.00 in   Mostly Cloudy
2:53 PM 54.0 °F - 37.9 °F 55% 29.90 in 10.0 mi Calm Calm - N/A   Mostly Cloudy
3:53 PM 60.1 °F - 36.0 °F 41% 29.88 in 10.0 mi NNE 4.6 mph - N/A   Mostly Cloudy
4:53 PM 57.9 °F - 37.9 °F 47% 29.88 in 10.0 mi NNE 3.5 mph - N/A   Mostly Cloudy
5:53 PM 57.0 °F - 37.9 °F 49% 29.88 in 10.0 mi Calm Calm - N/A   Mostly Cloudy
6:53 PM 54.0 °F - 37.9 °F 55% 29.88 in 10.0 mi Calm Calm - N/A   Mostly Cloudy
7:53 PM 46.9 °F - 37.0 °F 68% 29.89 in 10.0 mi Calm Calm - N/A   Mostly Cloudy
8:53 PM 45.0 °F - 36.0 °F 71% 29.90 in 10.0 mi Calm Calm - N/A   Mostly Cloudy
9:53 PM 43.0 °F - 36.0 °F 76% 29.92 in 10.0 mi Calm Calm - N/A   Scattered Clouds
10:53 PM 39.9 °F 36.7 °F 35.1 °F 83% 29.94 in 10.0 mi NNE 4.6 mph - N/A   Scattered Clouds
11:53 PM 37.9 °F - 34.0 °F 86% 29.95 in 10.0 mi Calm Calm - N/A   Scattered Clouds